Hourly Data Report for September 06, 2017

All times are specified in Local Standard Time (LST). Add 1 hour to adjust for Daylight Saving Time where and when it is observed.

WOODSTOCK NEWBRIDGE
NEW BRUNSWICK

46°09'08.000" N
67°32'34.000" W
154.00 m
8105603
71606
EWD

Download Data

Hourly Data (September 2017)
Hourly Data Report for September 6, 2017
Temp Definition
°C
Dew Point Temp Definition
°C
Rel Hum Definition
%
Wind Dir Definition
10's deg

Wind Spd Definition
km/h
Visibility Definition
km
Stn Press Definition
kPa
Hmdx Definition


Wind Chill Definition


Weather Definition


TIME
00:00 17.8 17.0 95 16 10   99.15     LegendNANA
01:00 17.6 17.1 97 14 6   99.20     LegendNANA
02:00 17.6 17.1 97 15 5   99.16     LegendNANA
03:00 17.7 17.2 97 21 3   99.27     LegendNANA
04:00 17.9 17.3 96 17 6   99.30     LegendNANA
05:00 17.8 17.4 97 19 4   99.39     LegendNANA
06:00 17.0 16.4 96   0   99.44     LegendNANA
07:00 16.4 16.0 97 24 3   99.53     LegendNANA
08:00 16.4 16.0 97 0 1   99.52     LegendNANA
09:00 16.8 16.2 96 0 1   99.61     LegendNANA
10:00 16.7 16.2 97 25 2   99.67     LegendNANA
11:00 16.7 16.2 97 0 1   99.67     LegendNANA
12:00 16.7 16.2 97   0   99.67     LegendNANA
13:00 16.7 16.3 97 28 5   99.71     LegendNANA
14:00 16.5 15.8 96 32 5   99.70     LegendNANA
15:00 16.4 15.5 94 32 6   99.70     LegendNANA
16:00 16.2 15.0 92 34 3   99.68     LegendNANA
17:00 16.1 15.2 95 34 2   99.63     LegendNANA
18:00 15.5 14.7 95 32 4   99.67     LegendNANA
19:00 14.9 14.1 95 32 2   99.67     LegendNANA
20:00 14.7 14.2 97 32 3   99.67     LegendNANA
21:00 14.8 14.4 98 32 1   99.66     LegendNANA
22:00 14.8 14.4 98 32 2   99.65     LegendNANA
23:00 14.9 14.6 98 32 2   99.62     LegendNANA

Notes on Data Quality.

Legend

  • E = Estimated
  • M = Missing
  • NA = Not Available
  • ‡ = Partner data that is not subject to review by the National Climate Archives
Date modified: